Location: Unspecified
(0.0000°N, 0.0000°E)
Time: 13:19:03
(UTC+00:00)

Hubble Space Telescope - Pass Details

Date: 14 April 2021
Orbit: 535 x 539 km, 28.5° (Epoch: 16 April)

Event Time Altitude Azimuth Distance (km) Brightness Sun altitude
Rises 20:01:52 0° 263° (W) 2,670 5.4 -29.9°
Reaches altitude 10° 20:04:29 10° 278° (W) 1,778 4.3 -30.6°
Enters shadow 20:06:49 21° 311° (NW) 1,233 3.1 -31.2°
